This demonstration page uses our WeatherBlox Daily Observations layout. Learn more.

Left ArrowRight Arrow

44.8408, -93.29828

Hourly Observations for August 29, 2017

Temp ( °F °C ) Dew Point ( °F °C ) Humidity (%) Winds ( mph kmh ) Pressure ( in mb ) Visibility ( mi km ) Precip ( " mm )
12:53 am 00:53 Clear 62 16.7 60 15.6 93 93 Calm 30.09 1019 10 16 0.00 0.00
1:53 am 01:53 Clear 60 15.6 59 15 96 96 NW 5 7 30.09 1019 10 16 0.00 0.00
2:53 am 02:53 Clear 61 16.1 60 15.6 97 97 Calm 30.09 1019 10 16 0.00 0.00
3:53 am 03:53 Clear 59 15 59 15 100 100 WNW 3 6 30.09 1019 10 16 0.00 0.00
4:53 am 04:53 Clear 59 15 58 14.4 96 96 Calm 30.09 1019 10 16 0.00 0.00
5:53 am 05:53 Mostly Clear 59 15 58 14.4 96 96 Calm 30.10 1019 10 16 0.00 0.00
6:53 am 06:53 Partly Cloudy with Fog 59 15 58 14.4 96 96 Calm 30.11 1020 8 13 0.00 0.00
7:53 am 07:53 Mostly Sunny 62 16.7 60 15.6 93 93 Calm 30.12 1020 10 16 0.00 0.00
8:53 am 08:53 Mostly Sunny 66 18.9 61 16.1 84 84 Calm 30.12 1020 10 16 0.00 0.00
9:53 am 09:53 Mostly Sunny 70 21.1 62 16.7 76 76 Calm 30.11 1020 10 16 0.00 0.00
10:53 am 10:53 Mostly Sunny 73 22.8 62 16.7 69 69 Calm 30.11 1020 10 16 0.00 0.00
11:53 am 11:53 Partly Cloudy 74 23.3 62 16.7 67 67 VRB 5 7 30.11 1020 10 16 0.00 0.00
12:53 pm 12:53 Mostly Sunny 75 23.9 61 16.1 62 62 SSE 5 7 30.10 1019 10 16 0.00 0.00
1:53 pm 13:53 Partly Cloudy 76 24.4 59 15 56 56 Calm 30.09 1019 10 16 0.00 0.00
2:53 pm 14:53 Mostly Cloudy 80 26.7 60 15.6 51 51 Calm 30.07 1018 10 16 0.00 0.00
3:53 pm 15:53 Partly Cloudy 78 25.6 60 15.6 54 54 VRB 3 6 30.06 1018 10 16 0.00 0.00
4:53 pm 16:53 Partly Cloudy 78 25.6 60 15.6 54 54 S 3 6 30.06 1018 10 16 0.00 0.00
5:53 pm 17:53 Mostly Sunny 77 25 60 15.6 56 56 SSW 5 7 30.05 1018 10 16 0.00 0.00
6:53 pm 18:53 Mostly Sunny 75 23.9 61 16.1 62 62 SSE 7 11 30.04 1017 10 16 0.00 0.00
7:53 pm 19:53 Mostly Sunny 74 23.3 62 16.7 67 67 SSE 7 11 30.04 1017 10 16 0.00 0.00
8:53 pm 20:53 Clear 74 23.3 61 16.1 64 64 S 5 7 30.04 1017 10 16 0.00 0.00
9:53 pm 21:53 Clear 72 22.2 61 16.1 68 68 S 6 9 30.05 1018 10 16 0.00 0.00
10:53 pm 22:53 Mostly Cloudy 70 21.1 61 16.1 73 73 Calm 30.05 1018 10 16 0.00 0.00
11:53 pm 23:53 Mostly Clear 69 20.6 60 15.6 73 73 SW 3 6 30.05 1018 10 16 0.00 0.00

Powered by AerisWeather